Lapeer, MI

7:53 AM EDT on May 30, 2017 (GMT -0400)
Lapeer

Weather History for KD95 - January, 2014

Change the Weather History Date:

Monday, January 20, 2014

  Actual Average (KFNT) Record (KFNT)
Temperature  
Mean Temperature 18 °F -  
Max Temperature 29 °F 27 °F 52 °F (1921)
Min Temperature 5 °F 13 °F -12 °F (1985)
Degree Days  
Heating Degree Days 48    
Moisture  
Dew Point 13 °F    
Average Humidity 79    
Maximum Humidity 99    
Minimum Humidity 59    
Precipitation  
Precipitation 0.00 in - - ()
Sea Level Pressure  
Sea Level Pressure 29.80 in    
Wind  
Wind Speed 8 mph (North)    
Max Wind Speed 17 mph    
Max Gust Speed 23 mph    
Visibility 8 miles    
Events Snow    
Averages and records for this station are not official NWS values.
T = Trace of Precipitation, MM = Missing Value Source: NWS Daily Summary

Daily Weather History Graph

Daily Weather History Graph

Search for Another Location

Airport or City:

Trip Planner

Search our weather history database for the weather conditions in past years. The results will help you decide how hot, cold, wet, or windy it might be!

Date:

Astronomy

Jan. 20, 2014 Rise Set
Actual Time 7:58 AM EST 5:29 PM EST
Civil Twilight 7:27 AM EST 6:01 PM EST
Nautical Twilight 6:52 AM EST 6:35 PM EST
Astronomical Twilight 6:19 AM EST 7:09 PM EST
Moon 10:12 PM EST (1/20) 9:50 AM EST (1/20)
Length of Visible Light 10h 33m
Length of Day
9h 31m
Waning Gibbous, 83% of the Moon is Illuminated
Jan 20
Waning Gibbous
Jan 24
Last Quarter
Jan 30
New
Feb 6
First Quarter
Feb 14
Full

Hourly Weather History & Observations

Time (EST) Temp. Windchill Dew Point Humidity Pressure Visibility Wind Dir Wind Speed Gust Speed Precip Events Conditions
12:14 AM 29.5 °F 21.8 °F 25.7 °F 86% 29.48 in 10.0 mi WSW 8.1 mph - N/A   Overcast
12:33 AM 29.7 °F 23.7 °F 25.7 °F 85% 29.48 in 10.0 mi West 5.8 mph - N/A   Overcast
12:54 AM 29.7 °F 22.0 °F 26.1 °F 86% 29.48 in 10.0 mi WSW 8.1 mph - N/A   Overcast
1:14 AM 29.7 °F 22.8 °F 26.2 °F 87% 29.48 in 10.0 mi West 6.9 mph - N/A   Overcast
1:33 AM 29.7 °F 23.7 °F 26.6 °F 88% 29.47 in 7.0 mi West 5.8 mph - N/A   Overcast
1:54 AM 29.3 °F 23.2 °F 28.0 °F 95% 29.48 in 2.5 mi West 5.8 mph - N/A   Overcast
2:13 AM 29.1 °F 25.4 °F 28.4 °F 97% 29.49 in 2.5 mi WNW 3.5 mph - N/A   Overcast
2:34 AM 29.1 °F 25.4 °F 28.9 °F 99% 29.50 in 3.0 mi WNW 3.5 mph - N/A   Overcast
2:54 AM 29.1 °F 24.1 °F 28.9 °F 99% 29.50 in 2.5 mi WNW 4.6 mph - N/A   Overcast
3:13 AM 29.1 °F 23.0 °F 28.8 °F 99% 29.52 in 3.0 mi West 5.8 mph - N/A   Overcast
3:34 AM 29.1 °F 23.0 °F 28.8 °F 99% 29.53 in 4.0 mi WNW 5.8 mph - N/A   Overcast
3:54 AM 29.1 °F 23.0 °F 28.8 °F 99% 29.53 in 2.5 mi NW 5.8 mph - N/A   Overcast
4:13 AM 29.1 °F 22.1 °F 28.9 °F 99% 29.54 in 2.5 mi NW 6.9 mph - N/A   Overcast
4:34 AM 28.8 °F 16.6 °F 28.0 °F 97% 29.55 in 4.0 mi North 17.3 mph - N/A   Overcast
4:54 AM 25.2 °F 12.9 °F 23.5 °F 94% 29.58 in 7.0 mi NNE 15.0 mph 23.0 mph N/A   Overcast
5:13 AM 24.6 °F 13.8 °F 23.0 °F 94% 29.60 in 7.0 mi North 11.5 mph 17.3 mph N/A   Overcast
5:34 AM 23.0 °F 10.6 °F 21.2 °F 93% 29.62 in 7.0 mi North 13.8 mph 20.7 mph N/A   Overcast
5:54 AM 22.1 °F 11.3 °F 20.7 °F 94% 29.64 in 5.0 mi North 10.4 mph 16.1 mph N/A Snow Light Snow
6:13 AM 21.2 °F 10.9 °F 19.2 °F 92% 29.67 in 7.0 mi North 9.2 mph 18.4 mph N/A   Overcast
6:34 AM 20.5 °F 9.2 °F 18.5 °F 92% 29.68 in 10.0 mi North 10.4 mph - N/A   Overcast
6:53 AM 19.4 °F 5.5 °F 16.2 °F 87% 29.70 in 10.0 mi North 15.0 mph 23.0 mph N/A   Overcast
7:13 AM 19.0 °F 7.5 °F 14.9 °F 84% 29.70 in 10.0 mi North 10.4 mph 20.7 mph N/A   Overcast
7:34 AM 18.5 °F 7.5 °F 13.1 °F 79% 29.70 in 10.0 mi North 9.2 mph - N/A   Overcast
7:53 AM 18.1 °F 8.9 °F 13.1 °F 81% 29.71 in 10.0 mi North 6.9 mph - N/A   Overcast
8:14 AM 17.6 °F 5.7 °F 12.6 °F 81% 29.72 in 10.0 mi North 10.4 mph 16.1 mph N/A   Overcast
8:34 AM 17.4 °F 6.2 °F 13.1 °F 83% 29.74 in 10.0 mi NNW 9.2 mph - N/A Snow Light Snow
8:53 AM 17.1 °F 8.7 °F 12.7 °F 83% 29.75 in 10.0 mi North 5.8 mph - N/A   Overcast
9:14 AM 16.3 °F 4.9 °F 11.7 °F 82% 29.75 in 10.0 mi NNW 9.2 mph - N/A   Overcast
9:34 AM 16.2 °F 4.7 °F 11.5 °F 82% 29.77 in 10.0 mi NNW 9.2 mph - N/A   Mostly Cloudy
9:53 AM 16.5 °F 6.9 °F 11.3 °F 80% 29.79 in 10.0 mi NNW 6.9 mph - N/A   Mostly Cloudy
10:14 AM 16.5 °F 6.0 °F 10.6 °F 77% 29.81 in 10.0 mi NNW 8.1 mph - N/A   Overcast
10:34 AM 17.2 °F 7.8 °F 10.9 °F 76% 29.83 in 10.0 mi NNW 6.9 mph - N/A   Overcast
10:53 AM 17.2 °F 6.8 °F 10.6 °F 75% 29.83 in 10.0 mi North 8.1 mph - N/A   Overcast
11:14 AM 17.4 °F 8.0 °F 9.7 °F 72% 29.83 in 10.0 mi North 6.9 mph - N/A   Overcast
11:34 AM 17.4 °F 8.0 °F 9.7 °F 72% 29.84 in 10.0 mi NNW 6.9 mph - N/A   Overcast
11:53 AM 17.6 °F 8.2 °F 9.3 °F 70% 29.84 in 10.0 mi NW 6.9 mph - N/A   Overcast
12:14 PM 18.0 °F 7.7 °F 8.6 °F 67% 29.83 in 10.0 mi NNW 8.1 mph - N/A   Overcast
12:34 PM 17.8 °F 7.5 °F 8.8 °F 68% 29.83 in 10.0 mi North 8.1 mph - N/A   Overcast
12:53 PM 17.4 °F 8.0 °F 9.3 °F 71% 29.84 in 10.0 mi North 6.9 mph - N/A   Overcast
1:14 PM 17.6 °F 7.3 °F 9.3 °F 70% 29.84 in 10.0 mi NNW 8.1 mph - N/A   Overcast
1:33 PM 17.2 °F 7.8 °F 9.0 °F 70% 29.84 in 10.0 mi North 6.9 mph - N/A   Overcast
1:54 PM 17.2 °F 7.8 °F 9.0 °F 70% 29.85 in 10.0 mi North 6.9 mph - N/A   Overcast
2:14 PM 16.9 °F 8.5 °F 8.8 °F 71% 29.85 in 10.0 mi North 5.8 mph - N/A   Overcast
2:33 PM 16.7 °F 8.3 °F 9.1 °F 72% 29.86 in 10.0 mi North 5.8 mph - N/A   Overcast
2:54 PM 16.7 °F 8.3 °F 9.3 °F 73% 29.87 in 10.0 mi North 5.8 mph - N/A   Overcast
3:14 PM 16.3 °F 9.2 °F 8.8 °F 72% 29.89 in 10.0 mi NNE 4.6 mph - N/A   Overcast
3:33 PM 15.8 °F 6.1 °F 8.6 °F 73% 29.90 in 7.0 mi NE 6.9 mph - N/A   Overcast
3:54 PM 15.6 °F 5.9 °F 9.3 °F 76% 29.91 in 7.0 mi NNE 6.9 mph - N/A   Overcast
4:14 PM 14.9 °F 5.0 °F 8.8 °F 77% 29.92 in 7.0 mi NNE 6.9 mph - N/A Snow Light Snow
4:33 PM 14.5 °F 3.6 °F 8.2 °F 76% 29.92 in 7.0 mi NNE 8.1 mph - N/A   Overcast
4:54 PM 14.0 °F 2.9 °F 7.0 °F 74% 29.95 in 10.0 mi North 8.1 mph - N/A   Overcast
5:14 PM 13.6 °F 3.5 °F 7.3 °F 76% 29.96 in 7.0 mi NNE 6.9 mph - N/A   Overcast
5:33 PM 13.1 °F 2.8 °F 7.5 °F 78% 29.96 in 3.0 mi NNE 6.9 mph - N/A Snow Light Snow
5:54 PM 12.9 °F 0.7 °F 7.5 °F 79% 29.97 in 7.0 mi NNE 9.2 mph - N/A   Overcast
6:14 PM 12.7 °F 2.4 °F 7.7 °F 80% 29.97 in 10.0 mi North 6.9 mph - N/A   Overcast
6:33 PM 12.6 °F 1.1 °F 7.9 °F 82% 29.96 in 10.0 mi NNE 8.1 mph - N/A   Overcast
6:54 PM 12.6 °F 3.4 °F 8.2 °F 83% 29.98 in 10.0 mi North 5.8 mph - N/A   Overcast
7:14 PM 12.6 °F 4.8 °F 8.4 °F 83% 30.00 in 10.0 mi NNE 4.6 mph - N/A Snow Light Snow
7:33 PM 12.2 °F -1.0 °F 6.8 °F 79% 30.01 in 10.0 mi NNE 10.4 mph - N/A   Overcast
7:54 PM 12.0 °F -1.3 °F 4.3 °F 71% 30.00 in 10.0 mi NNE 10.4 mph - N/A   Overcast
8:14 PM 11.8 °F 2.5 °F 4.1 °F 71% 30.02 in 10.0 mi North 5.8 mph - N/A   Overcast
8:33 PM 12.0 °F -1.3 °F 3.9 °F 70% 30.01 in 10.0 mi NNE 10.4 mph 16.1 mph N/A   Overcast
8:54 PM 11.8 °F -0.7 °F 3.6 °F 69% 30.02 in 10.0 mi North 9.2 mph - N/A   Overcast
9:14 PM 11.7 °F -0.9 °F 3.0 °F 68% 30.03 in 10.0 mi North 9.2 mph - N/A   Overcast
9:33 PM 11.3 °F -2.2 °F 2.1 °F 67% 30.03 in 10.0 mi North 10.4 mph - N/A   Overcast
9:54 PM 10.4 °F -1.5 °F 0.9 °F 65% 30.05 in 10.0 mi North 8.1 mph - N/A   Overcast
10:14 PM 9.9 °F -1.1 °F 0.1 °F 65% 30.05 in 10.0 mi North 6.9 mph 17.3 mph N/A   Overcast
10:33 PM 9.3 °F -4.6 °F -0.6 °F 64% 30.05 in 10.0 mi NNE 10.4 mph - N/A   Overcast
10:54 PM 8.6 °F -2.6 °F -1.1 °F 65% 30.06 in 10.0 mi North 6.9 mph - N/A   Overcast
11:13 PM 7.7 °F -6.6 °F -3.6 °F 60% 30.07 in 10.0 mi North 10.4 mph - N/A   Overcast
11:34 PM 6.8 °F -6.9 °F -4.7 °F 59% 30.07 in 10.0 mi North 9.2 mph 16.1 mph N/A   Mostly Cloudy
11:54 PM 5.9 °F -4.5 °F -4.4 °F 63% 30.07 in 10.0 mi North 5.8 mph - N/A   Scattered Clouds